Hourly Weather Kyslyak

Today, 22 October, Thursday

Time Temperature Precipitation Wind Pressure Humidity
00:00 +10°C° 0 mm 1 mps 746 mmHg 66%
01:00 +8°C° 0 mm 0 mps 746 mmHg 65%
02:00 +8°C° 0 mm 0 mps 745 mmHg 64%
03:00 +8°C° 0 mm 0 mps 745 mmHg 63%
04:00 +9°C° 0 mm 1 mps 745 mmHg 63%
05:00 +9°C° 0 mm 1 mps 745 mmHg 62%
06:00 +10°C° 0 mm 1 mps 745 mmHg 61%
07:00 +10°C° 0 mm 1 mps 745 mmHg 61%
08:00 +11°C° 0 mm 1 mps 746 mmHg 60%
09:00 +13°C° 0 mm 1 mps 746 mmHg 54%
10:00 +14°C° 0 mm 2 mps 746 mmHg 49%
11:00 +16°C° 0 mm 2 mps 746 mmHg 43%
12:00 +17°C° 0 mm 2 mps 746 mmHg 41%
13:00 +18°C° 0 mm 2 mps 746 mmHg 39%
14:00 +19°C° 0 mm 2 mps 746 mmHg 37%
15:00 +18°C° 0 mm 2 mps 746 mmHg 42%
16:00 +17°C° 0 mm 2 mps 745 mmHg 47%
17:00 +15°C° 0 mm 2 mps 745 mmHg 51%
18:00 +15°C° 0 mm 2 mps 745 mmHg 53%
19:00 +14°C° 0 mm 2 mps 746 mmHg 54%
20:00 +13°C° 0 mm 2 mps 746 mmHg 56%
21:00 +13°C° 0 mm 2 mps 746 mmHg 56%
22:00 +13°C° 0 mm 2 mps 746 mmHg 57%
23:00 +13°C° 0 mm 2 mps 745 mmHg 57%

Tomorrow, 23 October, Friday

Time Temperature Precipitation Wind Pressure Humidity
00:00 +12°C° 0 mm 1 mps 745 mmHg 57%
01:00 +12°C° 0 mm 1 mps 745 mmHg 57%
02:00 +12°C° 0 mm 1 mps 745 mmHg 58%
03:00 +12°C° 0 mm 1 mps 745 mmHg 58%
04:00 +11°C° 0 mm 1 mps 745 mmHg 59%
05:00 +10°C° 0 mm 0 mps 745 mmHg 60%
06:00 +11°C° 0 mm 0 mps 745 mmHg 59%
07:00 +11°C° 0 mm 0 mps 744 mmHg 59%
08:00 +12°C° 0 mm 0 mps 744 mmHg 58%
09:00 +14°C° 0 mm 1 mps 744 mmHg 52%
10:00 +16°C° 0 mm 2 mps 744 mmHg 47%
11:00 +17°C° 0 mm 2 mps 744 mmHg 41%
12:00 +18°C° 0 mm 2 mps 744 mmHg 40%
13:00 +19°C° 0 mm 2 mps 743 mmHg 38%
14:00 +20°C° 0 mm 3 mps 743 mmHg 36%
15:00 +18°C° 0 mm 2 mps 742 mmHg 40%
16:00 +17°C° 0 mm 2 mps 742 mmHg 45%
17:00 +16°C° 0 mm 2 mps 742 mmHg 50%
18:00 +15°C° 0 mm 2 mps 742 mmHg 53%
19:00 +14°C° 0 mm 2 mps 742 mmHg 56%
20:00 +14°C° 0 mm 2 mps 742 mmHg 59%
21:00 +13°C° 0 mm 2 mps 742 mmHg 61%
22:00 +13°C° 0 mm 2 mps 742 mmHg 63%
23:00 +13°C° 0 mm 2 mps 742 mmHg 66%

Day after tomorrow, 24 October, Saturday

Time Temperature Precipitation Wind Pressure Humidity
00:00 +12°C° 0 mm 2 mps 742 mmHg 68%
01:00 +12°C° 0 mm 2 mps 742 mmHg 71%
02:00 +12°C° 0 mm 1 mps 742 mmHg 73%
03:00 +12°C° 0 mm 1 mps 742 mmHg 76%
04:00 +12°C° 0 mm 1 mps 741 mmHg 78%
05:00 +11°C° 0 mm 1 mps 741 mmHg 81%
06:00 +12°C° 0 mm 1 mps 741 mmHg 80%
07:00 +12°C° 0 mm 1 mps 741 mmHg 80%
08:00 +13°C° 0 mm 1 mps 742 mmHg 79%
09:00 +14°C° 0 mm 1 mps 741 mmHg 73%
10:00 +15°C° 0 mm 1 mps 741 mmHg 67%
11:00 +18°C° 0 mm 1 mps 741 mmHg 61%
12:00 +18°C° 0 mm 1 mps 741 mmHg 59%
13:00 +18°C° 0 mm 2 mps 741 mmHg 57%
14:00 +18°C° 0 mm 2 mps 741 mmHg 55%
15:00 +18°C° 0 mm 2 mps 741 mmHg 58%
16:00 +17°C° 0 mm 2 mps 741 mmHg 61%
17:00 +16°C° 0 mm 2 mps 740 mmHg 64%
18:00 +16°C° 0 mm 2 mps 741 mmHg 64%
19:00 +15°C° 0 mm 2 mps 741 mmHg 65%
20:00 +15°C° 0 mm 2 mps 741 mmHg 65%
21:00 +13°C° 0 mm 3 mps 741 mmHg 69%
22:00 +12°C° 0 mm 3 mps 742 mmHg 72%
23:00 +11°C° 0 mm 3 mps 742 mmHg 76%

, 25 October, Sunday

Time Temperature Precipitation Wind Pressure Humidity
00:00 +11°C° 0 mm 3 mps 742 mmHg 81%
01:00 +10°C° 0 mm 3 mps 742 mmHg 86%
02:00 +10°C° 0 mm 3 mps 742 mmHg 91%
03:00 +10°C° 0 mm 3 mps 743 mmHg 90%
04:00 +11°C° 0 mm 3 mps 743 mmHg 90%
05:00 +11°C° 0 mm 3 mps 744 mmHg 90%
06:00 +11°C° 0 mm 3 mps 744 mmHg 88%
07:00 +12°C° 0 mm 3 mps 744 mmHg 86%
08:00 +12°C° 0 mm 3 mps 744 mmHg 84%
09:00 +13°C° 0 mm 3 mps 745 mmHg 78%
10:00 +14°C° 0 mm 3 mps 745 mmHg 72%
11:00 +14°C° 0 mm 3 mps 745 mmHg 66%
12:00 +16°C° 0 mm 3 mps 745 mmHg 63%
13:00 +17°C° 0 mm 3 mps 745 mmHg 59%
14:00 +17°C° 0 mm 3 mps 745 mmHg 56%
15:00 +16°C° 0 mm 2 mps 745 mmHg 61%
16:00 +15°C° 0 mm 2 mps 745 mmHg 65%
17:00 +14°C° 0 mm 2 mps 745 mmHg 70%
18:00 +13°C° 0 mm 2 mps 746 mmHg 74%
19:00 +13°C° 0 mm 2 mps 746 mmHg 78%
20:00 +12°C° 0 mm 2 mps 746 mmHg 81%
21:00 +12°C° 0 mm 2 mps 746 mmHg 84%
22:00 +10°C° 0 mm 2 mps 746 mmHg 86%
23:00 +10°C° 0 mm 2 mps 746 mmHg 89%

25 October, Sunday

Time Temperature Precipitation Wind Pressure Humidity
00:00 +11°C° 0 mm 3 mps 742 mmHg 81%
01:00 +10°C° 0 mm 3 mps 742 mmHg 86%
02:00 +10°C° 0 mm 3 mps 742 mmHg 91%
03:00 +10°C° 0 mm 3 mps 743 mmHg 90%
04:00 +11°C° 0 mm 3 mps 743 mmHg 90%
05:00 +11°C° 0 mm 3 mps 744 mmHg 90%
06:00 +11°C° 0 mm 3 mps 744 mmHg 88%
07:00 +12°C° 0 mm 3 mps 744 mmHg 86%
08:00 +12°C° 0 mm 3 mps 744 mmHg 84%
09:00 +13°C° 0 mm 3 mps 745 mmHg 78%
10:00 +14°C° 0 mm 3 mps 745 mmHg 72%
11:00 +14°C° 0 mm 3 mps 745 mmHg 66%
12:00 +16°C° 0 mm 3 mps 745 mmHg 63%
13:00 +17°C° 0 mm 3 mps 745 mmHg 59%
14:00 +17°C° 0 mm 3 mps 745 mmHg 56%
15:00 +16°C° 0 mm 2 mps 745 mmHg 61%
16:00 +15°C° 0 mm 2 mps 745 mmHg 65%
17:00 +14°C° 0 mm 2 mps 745 mmHg 70%
18:00 +13°C° 0 mm 2 mps 746 mmHg 74%
19:00 +13°C° 0 mm 2 mps 746 mmHg 78%
20:00 +12°C° 0 mm 2 mps 746 mmHg 81%
21:00 +12°C° 0 mm 2 mps 746 mmHg 84%
22:00 +10°C° 0 mm 2 mps 746 mmHg 86%
23:00 +10°C° 0 mm 2 mps 746 mmHg 89%

26 October, Monday

Time Temperature Precipitation Wind Pressure Humidity
00:00 +10°C° 0 mm 2 mps 746 mmHg 90%
01:00 +9°C° 0 mm 2 mps 746 mmHg 92%
02:00 +9°C° 0 mm 2 mps 746 mmHg 93%
03:00 +9°C° 0 mm 2 mps 746 mmHg 93%
04:00 +8°C° 0 mm 3 mps 746 mmHg 94%
05:00 +8°C° 0 mm 3 mps 746 mmHg 94%
06:00 +8°C° 0 mm 3 mps 746 mmHg 92%
07:00 +9°C° 0 mm 3 mps 746 mmHg 90%
08:00 +8°C° 0 mm 4 mps 746 mmHg 88%
09:00 +11°C° 0 mm 4 mps 746 mmHg 82%
10:00 +12°C° 0 mm 4 mps 746 mmHg 75%
11:00 +14°C° 0 mm 5 mps 746 mmHg 69%
12:00 +14°C° 0 mm 5 mps 746 mmHg 67%
13:00 +15°C° 0 mm 5 mps 746 mmHg 65%
14:00 +16°C° 0 mm 5 mps 745 mmHg 63%
15:00 +15°C° 0 mm 4 mps 745 mmHg 65%
16:00 +15°C° 0 mm 4 mps 745 mmHg 68%
17:00 +14°C° 0 mm 3 mps 745 mmHg 70%
18:00 +14°C° 0 mm 4 mps 745 mmHg 70%
19:00 +14°C° 0 mm 4 mps 745 mmHg 71%
20:00 +14°C° 0 mm 4 mps 745 mmHg 72%
21:00 +14°C° 0 mm 4 mps 744 mmHg 72%
22:00 +13°C° 0 mm 4 mps 744 mmHg 73%
23:00 +13°C° 0 mm 4 mps 744 mmHg 74%

27 October, Tuesday

Time Temperature Precipitation Wind Pressure Humidity
00:00 +13°C° 0 mm 5 mps 744 mmHg 74%
01:00 +13°C° 0 mm 5 mps 744 mmHg 75%
02:00 +12°C° 0 mm 5 mps 744 mmHg 75%
03:00 +12°C° 0.2 mm 5 mps 744 mmHg 78%
04:00 +12°C° 0.2 mm 5 mps 744 mmHg 82%
05:00 +12°C° 0.2 mm 5 mps 744 mmHg 85%
06:00 +12°C° 0 mm 5 mps 744 mmHg 83%
07:00 +12°C° 0 mm 5 mps 744 mmHg 82%
08:00 +12°C° 0 mm 4 mps 744 mmHg 80%
09:00 +13°C° 0 mm 4 mps 744 mmHg 78%
10:00 +14°C° 0 mm 4 mps 745 mmHg 76%
11:00 +15°C° 0 mm 4 mps 745 mmHg 75%
12:00 +17°C° 0 mm 4 mps 745 mmHg 71%
13:00 +17°C° 0 mm 5 mps 745 mmHg 68%
14:00 +20°C° 0 mm 5 mps 745 mmHg 64%
15:00 +19°C° 0 mm 4 mps 744 mmHg 66%
16:00 +18°C° 0 mm 4 mps 744 mmHg 67%
17:00 +17°C° 0 mm 4 mps 744 mmHg 68%
18:00 +15°C° 0 mm 4 mps 744 mmHg 70%
19:00 +15°C° 0 mm 5 mps 744 mmHg 71%
20:00 +14°C° 0 mm 5 mps 744 mmHg 72%
21:00 +13°C° 0 mm 5 mps 744 mmHg 74%
22:00 +13°C° 0 mm 4 mps 744 mmHg 75%
23:00 +12°C° 0 mm 4 mps 744 mmHg 77%
Show more

We Need Your Consent

Meteoprog and our Service Providers may store and access personal data such as cookies, device identifiers or other similar technologies on your device and process such data to personalise content and ads, as well as provide social media features and to analyse the traffic.

  • Store and/or access information on your device

    Cookies, device identifiers or other information can be stored or accessed on your device for the purposes indicated above.

  • Personalised ads and content, ad and content measurement, audience insights, and products development

    Ads and content can be personalised based on a profile. More data can be added to better personalise ads and content. Ad and content performance can be measured. Insights about the audience who saw the ads and content can be derived. Such data can be used to develop or improve user’s experience, systems and software.

By clicking ‘I Agree’ you will allow the use of indicated cookies, device identifiers, web beacons or other similar technologies. Your settings can be changed in the browser on your device.

For certain purposes, legitimate interests may be relied on, rather than consent. You can read more about this in our Privacy and Cookie Policy.